Weather in Zhirnovsk

Russia / Volgograd Oblast     50°58′43″N   44°46′43″E
temp.,
°C
wind,
m/s
gust,
m/s
humid.,
%
clouds,
%
prec.,
mm/h
press.,
hPa
HPBL,
m
27 july, tue
tue2700:00+17ene22550 0.0 102213
03:00+15ne11590 0.0 102211
06:00+18e01532 0.0 102236
09:00+24sw21363 0.0 1022826
12:00+27nw34315 0.0 10211974
15:00+28nw553251 0.0 10182769
18:00+25nnw3537100 0.0 1018121
21:00+21nw225397 0.0 101814
28 july, wed
wed2800:00+19nnw226255 0.0 101822
03:00+17nnw22693 0.0 101819
06:00+19n23724 0.0 1018107
09:00+25nne22465 0.0 1018728
12:00+29nne23320 0.0 10172494
15:00+30n232725 0.0 10152873
18:00+29nne12306 0.0 10152086
21:00+24nnw014189 0.0 101411
29 july, thu
thu2900:00+21sse225179 0.0 101411
03:00+20s3547100 0.0 101381
06:00+21s495068 0.0 1012203
09:00+27sw693975 0.0 1011636
12:00+31wsw711335 0.0 10092516
15:00+29wsw6113993 0.0 10081359
18:00+27sw695197 0.0 1008338
21:00+24w3555100 0.0 1009103
30 july, fri
fri3000:00+22wsw2262100 0.0 100919
03:00+21sw2264100 0.0 100925
06:00+23w126086 0.1 100982
09:00+28w3444100 0.1 1009667
12:00+25s3560100 0.1 1010288
15:00+31wsw354390 0.2 10081302
18:00+29e0153100 0.6 1007136
21:00+21s71279100 2.4 1010314
31 july, sat
sat3100:00+20sse1189100 0.9 100911
03:00+19sse1193100 2.1 100912
06:00+21ssw228490 0.6 1010104
09:00+26ssw446065 0.6 1009574
12:00+31sw45432 0.0 10081765
15:00+32wsw473672 0.0 10072728
18:00+29wnw795043 0.1 1008607
21:00+22s22778 2.1 100916